Location: Carrer del Canonge
(41.4901°N, 2.2931°E)
Time: 13:30:52
(UTC+00:00)

NOSS 3-2 (A) - Pass Details

Date: 18 September 2020
Orbit: 795 x 1413 km, 63.4° (Epoch: 28 October)

Event Time Altitude Azimuth Distance (km) Brightness Sun altitude
Rises 20:00:59 0° 325° (NW) 3,993 7.7 -23.8°
Reaches altitude 10° 20:03:33 10° 326° (NNW) 3,112 6.9 -24.2°
Maximum altitude 20:11:13 81° 55° (NE) 1,321 4.0 -25.5°
Enters shadow 20:13:58 47° 134° (SE) 1,701 4.3 -25.9°
